Wind_Speed
26 32 35 34 37 35 33 34 34 35 36 39 37 35 34 34 33 32 32 31 30 28 27 25 24 19 18 15 12 10 10 9 7 8 10 12 11 11 11 10 12 13 13
29 31 31 33 34 33 33 33 32 35 39 42 39 39 39 39 40 39 39 36 36 37 37 37 30 27 22 18 17 15 13 10 10 10 10 13 15 16 15 14 13 13 12
32 33 32 29 28 28 28 27 27 31 33 34 35 34 33 37 39 37 37 35 41 46 42 43 46 39 32 26 20 16 16 15 10 11 12 11 13 17 18 21 20 17 16
30 32 33 31 31 31 33 33 28 25 24 26 26 24 26 26 29 36 38 34 30 30 32 32 43 43 46 39 25 17 11 11 12 10 11 14 15 14 16 21 21 21 19
24 26 26 26 26 26 27 31 30 30 32 30 17 19 23 24 24 24 26 29 35 27 32 34 30 37 40 44 45 30 16 11 10 10 11 13 14 18 17 17 20 23 22
19 22 19 21 21 22 22 25 26 26 29 34 31 21 22 25 26 26 25 28 28 30 30 30 30 33 37 43 45 38 32 18 16 12 12 10 14 15 19 22 20 20 23
14 17 18 18 18 19 19 20 22 24 25 27 31 31 27 28 29 31 36 28 28 27 24 28 30 35 42 45 48 49 27 23 19 15 10 10 12 16 18 18 22 23 21
13 12 15 14 16 16 16 17 18 20 21 23 25 25 23 28 32 34 37 35 28 24 24 25 27 38 48 50 49 56 47 27 24 21 18 11 7 10 13 16 20 23 27
10 10 10 11 11 13 14 14 15 16 17 20 22 24 24 25 29 30 31 24 25 26 27 24 29 34 42 53 53 54 59 53 48 33 23 20 18 12 10 18 23 23 25
8 7 6 7 8 10 11 12 12 14 15 17 18 21 23 24 24 27 30 32 34 32 22 22 30 33 38 44 50 55 55 58 52 42 36 28 24 24 17 13 12 20 28
7 7 7 6 8 10 10 11 13 14 14 14 16 19 21 21 23 26 28 31 34 30 16 24 31 35 30 38 47 46 50 58 59 50 50 48 36 35 26 14 8 14 15
3 3 4 4 6 7 8 10 12 15 16 16 16 17 20 21 23 25 28 32 35 32 15 11 28 32 28 30 39 45 47 56 60 55 59 59 57 53 47 37 31 23 22
3 2 2 3 5 7 10 11 14 16 18 19 20 21 20 21 22 25 27 31 35 34 23 18 15 25 29 31 33 44 49 55 58 61 57 62 61 59 59 54 50 42 32
7 6 5 6 8 9 10 12 13 14 16 18 20 21 23 25 26 26 28 30 32 35 34 13 2 18 27 33 34 39 43 47 55 60 63 61 57 61 66 63 68 64 63
11 10 9 9 10 11 13 14 14 16 17 20 21 23 24 25 27 29 30 34 36 39 39 19 14 18 20 27 33 38 43 46 52 60 66 70 52 57 66 68 72 78 78
14 10 10 12 11 12 17 19 21 21 21 23 25 27 27 28 29 31 33 36 39 40 41 19 15 16 19 25 28 38 45 46 53 59 63 71 48 57 66 66 71 79 88
15 12 14 16 15 17 21 23 24 24 26 28 30 31 33 34 35 36 37 38 41 42 39 25 17 19 23 22 26 38 42 48 54 56 62 63 52 58 63 74 76 84 87
17 15 17 19 19 25 26 26 25 26 30 31 33 35 38 39 39 41 39 41 42 42 38 25 24 25 26 23 25 31 38 45 53 54 59 65 65 63 63 73 76 84 86
22 23 25 24 26 29 32 32 31 30 32 36 38 40 43 43 44 47 47 45 46 44 38 22 20 23 27 30 24 30 43 48 47 51 56 62 65 64 63 71 79 85 90
29 29 29 30 32 35 36 35 35 37 39 42 46 48 50 51 53 54 54 52 52 42 33 18 19 26 27 32 31 31 36 43 50 56 53 60 66 56 66 69 83 91 96
32 34 34 36 36 36 38 40 43 45 48 51 52 54 57 58 58 57 54 53 42 32 16 18 22 27 28 29 31 33 35 38 50 54 52 55 62 66 59 71 81 87 94
35 38 39 40 42 43 45 46 50 51 54 57 58 58 55 53 50 45 44 36 29 14 16 20 27 31 31 26 27 30 35 39 45 54 57 56 62 63 59 73 85 89 92
40 41 42 44 45 47 48 51 54 59 59 55 50 49 48 45 40 39 36 29 20 12 17 17 20 21 25 31 30 31 38 42 50 54 53 55 58 63 66 78 82 90 90
43 44 44 47 48 50 52 55 52 47 48 49 49 46 45 43 43 40 35 23 15 18 13 17 19 23 25 24 29 33 37 42 54 51 51 55 62 68 73 78 86 88 89
44 46 47 49 52 54 47 41 36 34 36 42 41 43 43 45 48 39 35 24 18 19 17 19 24 26 26 29 32 32 39 47 48 48 52 55 62 67 77 81 86 89 88
46 47 49 49 43 40 37 34 35 34 35 32 41 42 43 47 51 43 34 30 24 20 24 21 19 23 28 36 32 35 42 49 49 48 50 55 62 65 75 83 83 90 85
Wind_Direction
83 74 75 79 78 79 72 66 67 67 70 70 69 69 70 69 67 61 55 52 50 47 42 38 35 37 33 26 16 359 354 4 349 273 257 254 249 245 243 247 258 266 274
85 79 79 77 78 80 75 72 66 69 74 72 71 73 75 75 72 64 56 56 58 56 49 50 45 41 29 12 2 358 353 331 323 321 304 266 256 255 254 251 254 259 264
89 81 78 78 78 74 74 75 72 75 76 75 74 73 74 77 64 60 64 62 63 56 53 53 49 38 34 30 20 6 353 349 327 287 288 300 284 262 255 257 259 265 276
93 88 86 83 79 75 69 64 70 64 69 75 71 61 60 49 55 55 52 45 46 31 34 24 32 27 35 28 21 7 359 344 344 326 281 273 284 291 279 265 262 263 261
100 94 92 87 78 71 66 63 63 63 53 52 68 68 45 44 38 36 26 27 36 26 22 24 38 35 35 30 21 9 351 334 317 309 300 281 263 262 269 276 268 260 253
100 95 93 86 79 72 67 59 57 55 52 48 56 58 47 41 32 24 24 28 28 32 40 41 31 19 20 19 27 16 9 348 334 301 277 275 267 267 262 265 268 274 265
104 97 91 87 77 67 58 59 58 51 42 49 53 48 55 46 37 35 33 31 36 61 41 36 41 36 40 40 38 30 27 18 14 7 338 280 282 273 273 269 261 262 264
108 95 90 80 73 66 56 52 49 49 45 46 50 49 44 41 39 33 34 38 57 49 38 26 34 48 47 44 40 42 43 48 37 34 31 10 301 270 262 272 276 268 258
118 102 89 85 75 68 58 43 41 45 45 48 46 47 41 38 36 30 30 32 22 23 21 34 33 36 48 44 35 39 41 49 54 46 40 34 39 29 291 275 273 274 267
122 97 75 66 60 47 45 36 24 29 29 34 39 43 39 30 28 25 20 13 12 20 28 27 60 54 50 45 37 35 38 38 50 54 50 50 46 52 41 19 323 282 266
100 87 71 55 47 48 31 28 20 22 25 25 28 35 36 31 22 16 14 6 8 13 36 28 50 47 48 46 35 33 33 31 34 44 46 49 49 54 51 44 356 314 300
123 96 74 43 21 31 21 12 6 11 17 17 19 21 24 23 18 12 2 4 4 9 6 28 31 31 36 46 38 30 24 28 26 31 40 34 30 34 33 25 13 354 337
240 277 321 338 352 350 351 352 350 353 358 1 2 7 9 10 7 2 359 354 352 2 351 330 326 32 30 35 40 27 23 17 21 28 29 26 28 28 26 23 19 11 351
246 257 270 283 298 307 312 319 327 338 346 347 347 351 355 355 354 355 351 348 347 348 345 336 354 24 29 25 22 29 20 10 14 16 18 21 21 23 21 19 17 15 5
245 249 273 291 295 302 303 303 312 323 331 330 332 336 340 341 340 340 341 340 342 344 344 338 273 298 2 10 15 23 20 15 9 11 13 8 16 19 18 15 16 10 4
240 251 264 284 306 325 323 314 310 311 316 320 321 325 328 329 331 332 335 334 338 339 343 334 294 276 320 356 357 5 5 10 10 3 6 2 12 13 16 15 14 8 5
246 247 272 307 316 319 318 317 310 308 310 313 315 318 321 322 322 323 327 330 331 334 338 325 306 303 309 353 345 7 2 6 11 4 358 4 12 10 10 9 7 6 5
252 264 289 297 304 310 312 311 308 302 305 307 310 313 312 314 315 315 318 321 321 326 327 318 300 310 300 326 356 357 10 3 5 3 358 357 356 354 1 6 2 1 3
255 264 274 284 294 299 302 303 301 300 302 302 303 304 305 306 309 311 312 313 316 318 317 306 298 308 319 309 332 351 358 354 359 358 1 350 351 353 356 360 1 358 1
253 264 273 283 289 294 297 297 296 297 298 299 300 302 304 306 306 308 309 312 313 314 311 300 316 323 318 304 308 317 337 353 357 356 3 348 351 351 350 356 356 357 358
260 268 275 283 287 288 288 292 294 297 299 300 300 300 301 304 305 306 304 308 311 308 311 319 324 332 318 305 295 314 321 347 353 351 357 350 345 343 353 354 355 355 355
264 268 273 278 283 287 291 294 297 298 297 296 297 298 301 302 302 301 309 313 305 308 334 337 325 327 334 317 308 313 318 331 344 346 347 347 344 341 342 344 348 349 350
266 269 274 279 284 287 292 295 297 295 296 297 300 300 301 302 297 305 312 311 299 335 326 332 328 332 322 321 315 315 315 322 332 337 340 343 344 337 334 337 343 346 349
267 273 277 281 286 291 293 295 297 298 296 298 300 299 297 295 294 307 304 308 290 310 305 300 302 309 315 325 319 316 322 329 331 333 336 340 334 335 333 336 340 345 348
268 274 279 284 288 291 291 290 293 298 299 303 312 313 307 298 297 305 296 285 293 296 283 292 297 304 320 330 333 330 336 335 333 332 334 336 331 329 330 332 337 343 345
273 279 282 284 282 281 284 284 299 303 307 311 320 315 311 309 305 304 300 287 294 278 286 301 295 298 311 304 325 326 332 337 333 329 328 333 328 327 324 329 333 338 343
Height
10990 10983 10978 10979 10979 10980 10979 10976 10975 10974 10972 10966 10962 10960 10960 10960 10959 10958 10955 10952 10951 10949 10946 10943 10940 10937 10935 10932 10928 10926 10924 10923 10922 10921 10920 10920 10919 10920 10920 10920 10920 10920 10919
10991 10985 10985 10985 10986 10985 10984 10981 10981 10979 10975 10971 10969 10967 10966 10966 10964 10963 10960 10957 10955 10952 10948 10944 10941 10938 10934 10931 10928 10926 10924 10922 10921 10920 10919 10917 10917 10917 10918 10918 10918 10918 10918
10991 10989 10989 10991 10992 10991 10989 10987 10985 10983 10980 10977 10976 10974 10973 10972 10971 10969 10966 10963 10961 10956 10951 10948 10944 10939 10934 10930 10927 10924 10921 10919 10918 10917 10915 10914 10913 10913 10914 10914 10915 10916 10916
10993 10994 10995 10997 10995 10995 10993 10991 10988 10986 10985 10983 10982 10980 10979 10977 10976 10973 10971 10969 10966 10961 10957 10952 10949 10943 10936 10931 10926 10921 10918 10915 10913 10911 10910 10910 10910 10910 10909 10908 10909 10910 10911
11001 11001 11002 11000 11000 10999 10997 10995 10993 10991 10990 10988 10986 10984 10983 10980 10978 10976 10974 10971 10969 10964 10960 10955 10951 10946 10939 10933 10928 10921 10916 10912 10908 10906 10904 10903 10903 10904 10904 10904 10904 10904 10904
11007 11005 11006 11004 11003 11003 11001 10998 10997 10997 10995 10992 10989 10988 10986 10985 10981 10979 10976 10973 10971 10966 10963 10958 10953 10949 10942 10935 10927 10920 10915 10910 10905 10900 10897 10896 10897 10897 10899 10900 10901 10902 10902
11009 11009 11007 11006 11005 11005 11003 11001 11001 11000 10999 10997 10994 10992 10990 10988 10985 10981 10979 10976 10973 10970 10966 10963 10957 10952 10946 10936 10930 10921 10913 10908 10902 10899 10897 10895 10895 10896 10896 10896 10897 10898 10898
11010 11010 11007 11007 11007 11007 11007 11004 11003 11003 11002 11001 10998 10995 10992 10990 10988 10985 10982 10979 10977 10975 10969 10965 10961 10956 10948 10942 10936 10931 10921 10909 10905 10899 10895 10891 10889 10888 10889 10890 10890 10890 10890
11010 11010 11010 11009 11009 11007 11006 11006 11005 11004 11004 11003 11000 10997 10995 10992 10990 10988 10985 10981 10978 10975 10973 10968 10962 10956 10952 10944 10943 10936 10931 10921 10910 10905 10897 10893 10890 10889 10889 10888 10888 10886 10884
11011 11011 11010 11010 11011 11008 11008 11008 11008 11006 11005 11004 11001 10999 10996 10994 10992 10990 10986 10982 10979 10976 10973 10970 10964 10958 10953 10947 10944 10940 10936 10930 10914 10909 10903 10899 10893 10890 10887 10886 10883 10876 10873
11010 11010 11010 11011 11011 11010 11009 11008 11007 11007 11006 11005 11003 11000 10998 10995 10992 10989 10987 10984 10980 10977 10974 10971 10965 10959 10955 10950 10944 10942 10938 10932 10921 10913 10906 10902 10896 10889 10885 10880 10874 10870 10867
11009 11010 11010 11010 11011 11010 11010 11009 11008 11007 11006 11005 11003 11000 10998 10995 10993 10990 10987 10983 10979 10975 10973 10970 10966 10961 10957 10949 10948 10944 10938 10932 10923 10914 10906 10900 10893 10884 10880 10876 10871 10865 10857
11008 11009 11009 11010 11010 11010 11009 11009 11008 11007 11005 11004 11001 11000 10999 10996 10993 10990 10987 10983 10977 10974 10971 10968 10966 10961 10955 10949 10945 10940 10935 10929 10920 10912 10904 10898 10890 10883 10877 10871 10866 10859 10853
11005 11007 11008 11008 11008 11008 11008 11007 11007 11006 11005 11003 11000 10998 10996 10993 10990 10988 10984 10981 10978 10972 10966 10962 10961 10957 10953 10948 10943 10937 10932 10926 10918 10910 10902 10896 10888 10880 10873 10867 10861 10851 10843
11002 11004 11005 11006 11006 11006 11006 11005 11004 11003 11001 10999 10996 10995 10993 10990 10987 10983 10980 10976 10972 10967 10962 10957 10955 10953 10948 10944 10942 10934 10928 10922 10913 10906 10899 10891 10885 10878 10870 10864 10853 10844 10834
11000 11001 11003 11003 11003 11003 11002 11001 11000 10999 10997 10995 10992 10990 10988 10985 10982 10978 10975 10970 10966 10963 10956 10953 10949 10948 10943 10940 10938 10931 10925 10918 10908 10901 10894 10886 10878 10872 10863 10854 10847 10839 10821
10996 10998 10998 10999 10999 10999 10999 10997 10995 10994 10992 10990 10987 10984 10982 10978 10975 10970 10968 10964 10960 10957 10954 10948 10944 10942 10938 10934 10932 10927 10921 10912 10903 10898 10890 10884 10877 10867 10857 10849 10837 10823 10816
10992 10994 10995 10995 10994 10993 10992 10992 10990 10988 10986 10983 10980 10977 10973 10970 10967 10964 10962 10958 10955 10951 10947 10942 10939 10937 10934 10931 10926 10921 10918 10909 10899 10890 10882 10877 10874 10864 10853 10842 10831 10819 10805
10987 10989 10989 10990 10989 10987 10986 10985 10983 10981 10979 10976 10973 10969 10965 10962 10959 10955 10953 10950 10947 10943 10939 10936 10931 10928 10926 10922 10918 10912 10908 10902 10897 10889 10881 10872 10865 10856 10845 10836 10828 10812 10799
10981 10982 10982 10983 10982 10980 10979 10978 10976 10974 10971 10967 10964 10960 10957 10954 10950 10947 10943 10941 10936 10935 10930 10928 10926 10922 10920 10915 10911 10906 10902 10896 10887 10881 10873 10868 10859 10851 10839 10831 10815 10799 10788
10975 10975 10975 10975 10974 10972 10971 10970 10967 10966 10962 10959 10956 10952 10948 10945 10941 10938 10932 10928 10927 10925 10922 10920 10919 10918 10913 10908 10904 10901 10897 10892 10883 10875 10869 10864 10856 10847 10835 10822 10812 10800 10786
10968 10966 10966 10965 10965 10965 10963 10962 10958 10955 10952 10948 10947 10943 10940 10935 10932 10927 10925 10919 10916 10917 10916 10913 10911 10907 10902 10900 10899 10895 10891 10886 10878 10870 10862 10855 10845 10837 10831 10818 10804 10794 10785
10957 10958 10958 10957 10958 10956 10954 10952 10949 10943 10939 10936 10935 10932 10929 10926 10922 10921 10917 10913 10910 10910 10909 10908 10904 10900 10897 10892 10890 10887 10884 10879 10870 10864 10855 10848 10838 10829 10822 10812 10801 10786 10771
10947 10949 10950 10949 10948 10947 10944 10941 10939 10933 10928 10926 10925 10924 10921 10917 10915 10914 10911 10908 10906 10906 10903 10899 10897 10892 10890 10886 10880 10878 10875 10872 10863 10855 10848 10838 10829 10820 10812 10804 10790 10777 10761
10940 10941 10941 10940 10937 10935 10933 10932 10931 10928 10922 10919 10917 10913 10910 10908 10906 10906 10902 10901 10901 10899 10896 10892 10888 10883 10877 10874 10870 10868 10867 10865 10856 10848 10839 10830 10820 10812 10803 10794 10783 10771 10758
10932 10931 10930 10928 10927 10925 10923 10922 10921 10920 10917 10915 10911 10906 10901 10898 10894 10895 10895 10894 10894 10890 10887 10883 10880 10877 10875 10869 10859 10857 10855 10854 10847 10841 10833 10826 10816 10805 10795 10788 10780 10770 10755